Time,TemperatureF,DewpointF,PressureIn,WindDirection,WindDirectionDegrees,WindSpeedMPH,WindSpeedGustMPH,Humidity,HourlyPrecipIn,Conditions,Clouds,dailyrainin,SoftwareType,DateUTC
2013-07-18 00:01:00,78.0,73.1,30.10,ESE,116,2.0,3.0,85,0.00,,---,0.00,VWS V14.01,2013-07-18 04:01:00,
2013-07-18 00:06:00,78.0,73.1,30.10,ESE,116,2.0,3.0,85,0.00,,---,0.00,VWS V14.01,2013-07-18 04:06:00,
2013-07-18 00:11:00,77.9,73.0,30.10,ESE,116,2.0,2.0,85,0.00,,---,0.00,VWS V14.01,2013-07-18 04:11:00,
2013-07-18 00:16:00,77.9,72.7,30.10,ESE,116,2.0,2.0,84,0.00,,---,0.00,VWS V14.01,2013-07-18 04:16:00,
2013-07-18 00:21:00,78.0,73.1,30.10,ESE,116,3.0,3.0,85,0.00,,---,0.00,VWS V14.01,2013-07-18 04:21:00,
2013-07-18 00:26:00,77.8,72.9,30.10,ESE,116,1.0,1.0,85,0.00,,---,0.00,VWS V14.01,2013-07-18 04:26:00,
2013-07-18 00:31:00,77.5,73.3,30.10,ESE,116,2.0,2.0,87,0.00,,---,0.00,VWS V14.01,2013-07-18 04:31:00,
2013-07-18 00:36:00,77.0,73.2,30.10,ESE,116,0.0,3.0,88,0.00,,---,0.00,VWS V14.01,2013-07-18 04:36:00,
2013-07-18 00:41:00,77.3,74.1,30.11,ESE,116,5.0,5.0,90,0.01,,---,0.01,VWS V14.01,2013-07-18 04:41:00,
2013-07-18 00:46:00,77.7,73.5,30.11,ESE,111,4.0,5.0,87,0.01,,---,0.01,VWS V14.01,2013-07-18 04:46:00,
2013-07-18 00:51:00,77.3,73.1,30.11,ESE,105,8.0,9.0,87,0.01,,---,0.01,VWS V14.01,2013-07-18 04:51:00,
2013-07-18 00:56:00,77.7,73.9,30.11,ESE,104,7.0,8.0,88,0.01,,---,0.01,VWS V14.01,2013-07-18 04:56:00,
2013-07-18 01:01:00,77.9,74.4,30.11,ESE,103,7.0,7.0,89,0.01,,---,0.01,VWS V14.01,2013-07-18 05:01:00,
2013-07-18 01:06:00,77.8,74.3,30.11,ESE,103,0.0,0.0,89,0.01,,---,0.01,VWS V14.01,2013-07-18 05:06:00,
2013-07-18 01:11:00,77.5,73.7,30.12,ESE,103,0.0,0.0,88,0.01,,---,0.01,VWS V14.01,2013-07-18 05:11:00,
2013-07-18 01:16:00,77.1,73.6,30.12,ESE,103,0.0,0.0,89,0.01,,---,0.01,VWS V14.01,2013-07-18 05:16:00,
2013-07-18 01:21:00,76.7,73.6,30.12,ESE,103,0.0,0.0,90,0.01,,---,0.01,VWS V14.01,2013-07-18 05:21:00,
2013-07-18 01:26:00,76.3,73.2,30.12,ESE,103,0.0,0.0,90,0.01,,---,0.01,VWS V14.01,2013-07-18 05:26:00,
2013-07-18 01:31:00,76.0,73.2,30.12,ESE,103,0.0,0.0,91,0.01,,---,0.01,VWS V14.01,2013-07-18 05:31:00,
2013-07-18 01:36:00,75.8,73.0,30.12,ESE,103,0.0,0.0,91,0.01,,---,0.01,VWS V14.01,2013-07-18 05:36:00,
2013-07-18 01:41:00,75.6,72.8,30.11,ESE,103,0.0,0.0,91,0.00,,---,0.01,VWS V14.01,2013-07-18 05:41:00,
2013-07-18 01:46:00,75.5,72.7,30.11,ESE,103,0.0,0.0,91,0.00,,---,0.01,VWS V14.01,2013-07-18 05:46:00,
2013-07-18 01:51:00,75.5,73.0,30.11,ESE,103,1.0,2.0,92,0.00,,---,0.01,VWS V14.01,2013-07-18 05:51:00,
2013-07-18 01:56:00,75.3,72.8,30.10,ESE,103,1.0,1.0,92,0.00,,---,0.01,VWS V14.01,2013-07-18 05:56:00,
2013-07-18 02:01:00,75.1,72.9,30.11,ESE,103,2.0,2.0,93,0.00,,---,0.01,VWS V14.01,2013-07-18 06:01:00,
2013-07-18 02:06:00,74.9,72.7,30.11,ESE,103,0.0,0.0,93,0.00,,---,0.01,VWS V14.01,2013-07-18 06:06:00,
2013-07-18 02:11:00,74.8,72.6,30.11,ESE,103,0.0,1.0,93,0.00,,---,0.01,VWS V14.01,2013-07-18 06:11:00,
2013-07-18 02:17:00,74.6,72.4,30.11,ESE,103,0.0,0.0,93,0.00,,---,0.01,VWS V14.01,2013-07-18 06:17:00,
2013-07-18 02:22:00,74.5,72.3,30.11,ESE,103,0.0,0.0,93,0.00,,---,0.01,VWS V14.01,2013-07-18 06:22:00,
2013-07-18 02:27:00,74.4,72.6,30.10,ESE,103,0.0,0.0,94,0.00,,---,0.01,VWS V14.01,2013-07-18 06:27:00,
2013-07-18 02:32:00,74.4,72.6,30.10,ESE,103,0.0,0.0,94,0.00,,---,0.01,VWS V14.01,2013-07-18 06:32:00,
2013-07-18 02:37:00,74.3,72.5,30.09,ESE,103,0.0,1.0,94,0.00,,---,0.01,VWS V14.01,2013-07-18 06:37:00,
2013-07-18 02:42:00,74.3,72.5,30.10,ESE,103,0.0,0.0,94,0.00,,---,0.01,VWS V14.01,2013-07-18 06:42:00,
2013-07-18 02:47:00,74.4,72.6,30.09,ESE,103,0.0,0.0,94,0.00,,---,0.01,VWS V14.01,2013-07-18 06:47:00,
2013-07-18 02:52:00,74.4,72.6,30.09,ESE,103,0.0,0.0,94,0.00,,---,0.01,VWS V14.01,2013-07-18 06:52:00,
2013-07-18 02:57:00,74.4,72.2,30.09,ESE,103,0.0,0.0,93,0.00,,---,0.01,VWS V14.01,2013-07-18 06:57:00,
2013-07-18 03:02:00,74.5,72.3,30.09,ESE,103,0.0,0.0,93,0.00,,---,0.01,VWS V14.01,2013-07-18 07:02:00,
2013-07-18 03:07:00,74.6,72.4,30.08,ESE,103,0.0,0.0,93,0.00,,---,0.01,VWS V14.01,2013-07-18 07:07:00,
2013-07-18 03:12:00,74.5,72.3,30.08,ESE,103,0.0,0.0,93,0.00,,---,0.01,VWS V14.01,2013-07-18 07:12:00,
2013-07-18 03:17:00,74.5,72.7,30.08,ESE,103,0.0,1.0,94,0.00,,---,0.01,VWS V14.01,2013-07-18 07:17:00,
2013-07-18 03:22:00,74.5,72.7,30.08,ESE,103,0.0,0.0,94,0.00,,---,0.01,VWS V14.01,2013-07-18 07:22:00,
2013-07-18 03:27:00,74.4,72.6,30.08,ESE,103,0.0,0.0,94,0.00,,---,0.01,VWS V14.01,2013-07-18 07:27:00,
2013-07-18 03:32:00,74.4,72.6,30.08,ESE,103,0.0,0.0,94,0.00,,---,0.01,VWS V14.01,2013-07-18 07:32:00,
2013-07-18 03:37:00,74.4,72.6,30.08,ESE,103,0.0,0.0,94,0.00,,---,0.01,VWS V14.01,2013-07-18 07:37:00,
2013-07-18 03:42:00,74.5,72.7,30.07,ESE,103,0.0,0.0,94,0.00,,---,0.01,VWS V14.01,2013-07-18 07:42:00,
2013-07-18 03:47:00,74.5,72.7,30.07,ESE,103,0.0,0.0,94,0.00,,---,0.01,VWS V14.01,2013-07-18 07:47:00,
2013-07-18 03:52:00,74.5,72.7,30.07,ESE,103,0.0,0.0,94,0.00,,---,0.01,VWS V14.01,2013-07-18 07:52:00,
2013-07-18 03:57:00,74.5,72.3,30.07,ESE,103,0.0,0.0,93,0.00,,---,0.01,VWS V14.01,2013-07-18 07:57:00,
2013-07-18 04:02:00,74.6,72.4,30.06,ESE,103,0.0,0.0,93,0.00,,---,0.01,VWS V14.01,2013-07-18 08:02:00,
2013-07-18 04:07:00,74.5,72.3,30.06,ESE,103,0.0,0.0,93,0.00,,---,0.01,VWS V14.01,2013-07-18 08:07:00,
2013-07-18 04:12:00,74.4,71.9,30.06,ESE,103,0.0,0.0,92,0.00,,---,0.01,VWS V14.01,2013-07-18 08:12:00,
2013-07-18 04:17:00,74.3,71.8,30.06,ESE,103,0.0,0.0,92,0.00,,---,0.01,VWS V14.01,2013-07-18 08:17:00,
2013-07-18 04:22:00,74.6,72.4,30.07,ESE,103,3.0,3.0,93,0.00,,---,0.01,VWS V14.01,2013-07-18 08:22:00,
2013-07-18 04:27:00,74.5,72.3,30.07,ESE,103,3.0,3.0,93,0.00,,---,0.01,VWS V14.01,2013-07-18 08:27:00,
2013-07-18 04:32:00,74.3,71.8,30.06,ESE,103,2.0,2.0,92,0.00,,---,0.01,VWS V14.01,2013-07-18 08:32:00,
2013-07-18 04:37:00,74.4,71.6,30.06,ESE,103,3.0,3.0,91,0.00,,---,0.01,VWS V14.01,2013-07-18 08:37:00,
2013-07-18 04:42:00,74.4,71.6,30.06,ESE,103,0.0,0.0,91,0.00,,---,0.01,VWS V14.01,2013-07-18 08:42:00,
2013-07-18 04:47:00,74.4,71.6,30.06,ESE,103,1.0,2.0,91,0.00,,---,0.01,VWS V14.01,2013-07-18 08:47:00,
2013-07-18 04:52:00,74.3,71.5,30.06,ESE,103,3.0,3.0,91,0.00,,---,0.01,VWS V14.01,2013-07-18 08:52:00,
2013-07-18 04:57:00,74.3,71.8,30.06,ESE,103,2.0,3.0,92,0.00,,---,0.01,VWS V14.01,2013-07-18 08:57:00,
2013-07-18 05:02:00,74.2,71.7,30.06,ESE,103,3.0,4.0,92,0.00,,---,0.01,VWS V14.01,2013-07-18 09:02:00,
2013-07-18 05:07:00,74.0,71.5,30.05,ESE,103,0.0,3.0,92,0.00,,---,0.01,VWS V14.01,2013-07-18 09:07:00,
2013-07-18 05:12:00,73.9,71.4,30.05,ESE,103,2.0,2.0,92,0.00,,---,0.01,VWS V14.01,2013-07-18 09:12:00,
2013-07-18 05:17:00,73.7,71.2,30.05,ESE,103,1.0,3.0,92,0.00,,---,0.01,VWS V14.01,2013-07-18 09:17:00,
2013-07-18 05:22:00,73.6,71.5,30.05,ESE,103,2.0,3.0,93,0.00,,---,0.01,VWS V14.01,2013-07-18 09:22:00,
2013-07-18 05:27:00,73.5,71.4,30.05,ESE,103,2.0,3.0,93,0.00,,---,0.01,VWS V14.01,2013-07-18 09:27:00,
2013-07-18 05:32:00,73.4,71.3,30.05,ESE,103,1.0,2.0,93,0.00,,---,0.01,VWS V14.01,2013-07-18 09:32:00,
2013-07-18 05:37:00,73.4,71.6,30.05,ESE,103,2.0,3.0,94,0.00,,---,0.01,VWS V14.01,2013-07-18 09:37:00,
2013-07-18 05:42:00,73.3,71.5,30.04,ESE,103,0.0,1.0,94,0.00,,---,0.01,VWS V14.01,2013-07-18 09:42:00,
2013-07-18 05:47:00,73.3,71.5,30.05,ESE,103,2.0,2.0,94,0.00,,---,0.01,VWS V14.01,2013-07-18 09:47:00,
2013-07-18 05:52:00,73.3,71.5,30.05,ESE,103,2.0,3.0,94,0.00,,---,0.01,VWS V14.01,2013-07-18 09:52:00,
2013-07-18 05:57:00,73.2,71.4,30.05,ESE,103,2.0,2.0,94,0.00,,---,0.01,VWS V14.01,2013-07-18 09:57:00,
2013-07-18 06:02:00,73.2,71.7,30.06,ESE,103,1.0,2.0,95,0.00,,---,0.01,VWS V14.01,2013-07-18 10:02:00,
2013-07-18 06:07:00,73.2,71.7,30.06,ESE,103,2.0,2.0,95,0.00,,---,0.01,VWS V14.01,2013-07-18 10:07:00,
2013-07-18 06:12:00,73.2,71.7,30.06,ESE,103,2.0,3.0,95,0.00,,---,0.01,VWS V14.01,2013-07-18 10:12:00,
2013-07-18 06:17:00,73.2,71.7,30.07,ESE,103,2.0,3.0,95,0.00,,---,0.01,VWS V14.01,2013-07-18 10:17:00,
2013-07-18 06:22:00,73.1,71.6,30.07,ESE,103,1.0,2.0,95,0.00,,---,0.01,VWS V14.01,2013-07-18 10:22:00,
2013-07-18 06:28:00,73.0,71.5,30.07,ESE,103,0.0,2.0,95,0.00,,---,0.01,VWS V14.01,2013-07-18 10:28:00,
2013-07-18 06:33:00,73.0,71.5,30.07,ESE,103,0.0,1.0,95,0.00,,---,0.01,VWS V14.01,2013-07-18 10:33:00,
2013-07-18 06:38:00,73.0,71.5,30.07,ESE,103,1.0,2.0,95,0.00,,---,0.01,VWS V14.01,2013-07-18 10:38:00,
2013-07-18 06:43:00,72.9,71.4,30.06,ESE,103,2.0,3.0,95,0.00,,---,0.01,VWS V14.01,2013-07-18 10:43:00,
2013-07-18 06:48:00,72.9,71.4,30.06,ESE,103,2.0,3.0,95,0.00,,---,0.01,VWS V14.01,2013-07-18 10:48:00,
2013-07-18 06:53:00,72.8,71.3,30.06,ESE,103,2.0,2.0,95,0.00,,---,0.01,VWS V14.01,2013-07-18 10:53:00,
2013-07-18 06:58:00,72.8,71.3,30.07,ESE,103,1.0,2.0,95,0.00,,---,0.01,VWS V14.01,2013-07-18 10:58:00,
2013-07-18 07:03:00,72.8,71.3,30.07,ESE,103,1.0,2.0,95,0.00,,---,0.01,VWS V14.01,2013-07-18 11:03:00,
2013-07-18 07:08:00,72.7,71.2,30.07,ESE,103,1.0,3.0,95,0.00,,---,0.01,VWS V14.01,2013-07-18 11:08:00,
2013-07-18 07:13:00,72.7,71.2,30.07,ESE,103,1.0,4.0,95,0.00,,---,0.01,VWS V14.01,2013-07-18 11:13:00,
2013-07-18 07:18:00,72.7,71.2,30.07,ESE,103,2.0,3.0,95,0.00,,---,0.01,VWS V14.01,2013-07-18 11:18:00,
2013-07-18 07:23:00,72.7,71.2,30.07,ESE,103,2.0,3.0,95,0.00,,---,0.01,VWS V14.01,2013-07-18 11:23:00,
2013-07-18 07:28:00,72.8,71.3,30.07,ESE,103,1.0,4.0,95,0.00,,---,0.01,VWS V14.01,2013-07-18 11:28:00,
2013-07-18 07:33:00,72.8,71.3,30.07,ESE,103,0.0,4.0,95,0.00,,---,0.01,VWS V14.01,2013-07-18 11:33:00,
2013-07-18 07:38:00,72.8,71.3,30.07,ESE,103,1.0,3.0,95,0.00,,---,0.01,VWS V14.01,2013-07-18 11:38:00,
2013-07-18 07:43:00,73.0,71.5,30.07,ESE,103,3.0,3.0,95,0.00,,---,0.01,VWS V14.01,2013-07-18 11:43:00,
2013-07-18 07:48:00,73.1,71.6,30.07,ESE,103,3.0,4.0,95,0.00,,---,0.01,VWS V14.01,2013-07-18 11:48:00,
2013-07-18 07:53:00,73.2,71.7,30.07,ESE,103,1.0,4.0,95,0.00,,---,0.01,VWS V14.01,2013-07-18 11:53:00,
2013-07-18 07:58:00,73.4,71.9,30.08,ESE,103,0.0,3.0,95,0.00,,---,0.01,VWS V14.01,2013-07-18 11:58:00,
2013-07-18 08:03:00,73.6,72.1,30.08,ESE,103,2.0,5.0,95,0.00,,---,0.01,VWS V14.01,2013-07-18 12:03:00,
2013-07-18 08:08:00,73.8,72.0,30.08,ESE,103,1.0,3.0,94,0.00,,---,0.01,VWS V14.01,2013-07-18 12:08:00,
2013-07-18 08:13:00,74.1,71.9,30.08,ESE,103,2.0,3.0,93,0.00,,---,0.01,VWS V14.01,2013-07-18 12:13:00,
2013-07-18 08:18:00,74.4,72.2,30.08,ESE,103,2.0,3.0,93,0.00,,---,0.01,VWS V14.01,2013-07-18 12:18:00,
2013-07-18 08:23:00,74.6,72.1,30.09,ESE,103,1.0,1.0,92,0.00,,---,0.01,VWS V14.01,2013-07-18 12:23:00,
2013-07-18 08:28:00,74.9,72.4,30.09,ESE,103,0.0,0.0,92,0.00,,---,0.01,VWS V14.01,2013-07-18 12:28:00,
2013-07-18 08:33:00,75.2,72.4,30.09,ESE,103,1.0,1.0,91,0.00,,---,0.01,VWS V14.01,2013-07-18 12:33:00,
2013-07-18 08:38:00,75.4,72.6,30.09,ESE,103,0.0,1.0,91,0.00,,---,0.01,VWS V14.01,2013-07-18 12:38:00,
2013-07-18 08:43:00,75.6,72.8,30.09,ESE,103,2.0,2.0,91,0.00,,---,0.01,VWS V14.01,2013-07-18 12:43:00,
2013-07-18 08:48:00,75.9,73.1,30.09,ESE,103,1.0,2.0,91,0.00,,---,0.01,VWS V14.01,2013-07-18 12:48:00,
2013-07-18 08:53:00,76.2,73.4,30.09,ESE,103,0.0,1.0,91,0.00,,---,0.01,VWS V14.01,2013-07-18 12:53:00,
2013-07-18 08:58:00,76.6,73.4,30.09,ESE,103,0.0,0.0,90,0.00,,---,0.01,VWS V14.01,2013-07-18 12:58:00,
2013-07-18 09:03:00,77.0,73.8,30.10,ESE,103,0.0,1.0,90,0.00,,---,0.01,VWS V14.01,2013-07-18 13:03:00,
2013-07-18 09:08:00,77.3,73.8,30.10,ESE,103,1.0,2.0,89,0.00,,---,0.01,VWS V14.01,2013-07-18 13:08:00,
2013-07-18 09:13:00,77.4,73.9,30.10,ESE,103,0.0,0.0,89,0.00,,---,0.01,VWS V14.01,2013-07-18 13:13:00,
2013-07-18 09:18:00,77.5,74.0,30.10,ESE,103,1.0,2.0,89,0.00,,---,0.01,VWS V14.01,2013-07-18 13:18:00,
2013-07-18 09:23:00,77.6,73.8,30.10,ESE,103,1.0,1.0,88,0.00,,---,0.01,VWS V14.01,2013-07-18 13:23:00,
2013-07-18 09:28:00,77.8,73.6,30.10,ESE,103,2.0,2.0,87,0.00,,---,0.01,VWS V14.01,2013-07-18 13:28:00,
2013-07-18 09:33:00,77.9,73.7,30.10,ESE,103,0.0,0.0,87,0.00,,---,0.01,VWS V14.01,2013-07-18 13:33:00,
2013-07-18 09:38:00,78.1,73.6,30.11,ESE,103,0.0,0.0,86,0.00,,---,0.01,VWS V14.01,2013-07-18 13:38:00,
2013-07-18 09:43:00,78.3,73.8,30.10,ESE,103,1.0,1.0,86,0.00,,---,0.01,VWS V14.01,2013-07-18 13:43:00,
2013-07-18 09:48:00,78.5,74.0,30.11,ESE,103,0.0,0.0,86,0.00,,---,0.01,VWS V14.01,2013-07-18 13:48:00,
2013-07-18 09:53:00,78.7,74.2,30.11,ESE,103,0.0,0.0,86,0.00,,---,0.01,VWS V14.01,2013-07-18 13:53:00,
2013-07-18 09:58:00,78.9,74.4,30.11,ESE,103,0.0,0.0,86,0.00,,---,0.01,VWS V14.01,2013-07-18 13:58:00,
2013-07-18 10:03:00,79.3,74.8,30.11,ESE,103,0.0,1.0,86,0.00,,---,0.01,VWS V14.01,2013-07-18 14:03:00,
2013-07-18 10:08:00,79.6,74.7,30.11,ESE,103,1.0,2.0,85,0.00,,---,0.01,VWS V14.01,2013-07-18 14:08:00,
2013-07-18 10:13:00,80.0,74.7,30.10,ESE,103,0.0,2.0,84,0.00,,---,0.01,VWS V14.01,2013-07-18 14:13:00,
2013-07-18 10:18:00,80.4,74.8,30.11,ESE,103,1.0,3.0,83,0.00,,---,0.01,VWS V14.01,2013-07-18 14:18:00,
2013-07-18 10:23:00,80.7,75.1,30.11,ESE,103,0.0,0.0,83,0.00,,---,0.01,VWS V14.01,2013-07-18 14:23:00,
2013-07-18 10:28:00,81.0,75.0,30.10,ESE,103,2.0,2.0,82,0.00,,---,0.01,VWS V14.01,2013-07-18 14:28:00,
2013-07-18 10:33:00,81.2,75.6,30.10,ESE,103,1.0,3.0,83,0.00,,---,0.01,VWS V14.01,2013-07-18 14:33:00,
2013-07-18 10:38:00,81.5,75.8,30.10,ESE,103,1.0,3.0,83,0.00,,---,0.01,VWS V14.01,2013-07-18 14:38:00,
2013-07-18 10:43:00,81.6,75.9,30.10,ESE,103,1.0,2.0,83,0.00,,---,0.01,VWS V14.01,2013-07-18 14:43:00,
2013-07-18 10:48:00,81.7,75.7,30.10,ESE,103,1.0,3.0,82,0.00,,---,0.01,VWS V14.01,2013-07-18 14:48:00,
2013-07-18 10:53:00,82.0,76.0,30.10,ESE,103,0.0,3.0,82,0.00,,---,0.01,VWS V14.01,2013-07-18 14:53:00,
2013-07-18 10:58:00,82.4,76.4,30.10,ESE,103,3.0,4.0,82,0.00,,---,0.01,VWS V14.01,2013-07-18 14:58:00,
2013-07-18 11:03:00,82.9,76.8,30.10,ESE,103,2.0,3.0,82,0.00,,---,0.01,VWS V14.01,2013-07-18 15:03:00,
2013-07-18 11:08:00,82.8,76.8,30.10,ESE,103,3.0,3.0,82,0.00,,---,0.01,VWS V14.01,2013-07-18 15:08:00,
2013-07-18 11:13:00,82.8,77.1,30.10,ESE,103,0.0,5.0,83,0.00,,---,0.01,VWS V14.01,2013-07-18 15:13:00,
2013-07-18 11:18:00,83.0,76.9,30.10,ESE,103,1.0,2.0,82,0.00,,---,0.01,VWS V14.01,2013-07-18 15:18:00,
2013-07-18 11:23:00,83.5,77.4,30.10,ESE,103,3.0,5.0,82,0.00,,---,0.01,VWS V14.01,2013-07-18 15:23:00,
2013-07-18 11:29:00,83.6,77.5,30.11,ESE,103,7.0,7.0,82,0.00,,---,0.01,VWS V14.01,2013-07-18 15:29:00,
2013-07-18 11:34:00,83.6,77.2,30.11,ESE,103,4.0,5.0,81,0.00,,---,0.01,VWS V14.01,2013-07-18 15:34:00,
2013-07-18 11:39:00,83.7,77.2,30.11,ESE,103,5.0,7.0,81,0.00,,---,0.01,VWS V14.01,2013-07-18 15:39:00,
2013-07-18 11:44:00,83.5,77.4,30.11,ESE,103,5.0,7.0,82,0.00,,---,0.01,VWS V14.01,2013-07-18 15:44:00,
2013-07-18 11:49:00,83.5,77.4,30.11,East,90,5.0,5.0,82,0.00,,---,0.01,VWS V14.01,2013-07-18 15:49:00,
2013-07-18 11:54:00,83.6,77.2,30.11,East,96,6.0,10.0,81,0.00,,---,0.01,VWS V14.01,2013-07-18 15:54:00,
2013-07-18 11:59:00,83.3,78.0,30.12,East,100,5.0,6.0,84,0.00,,---,0.01,VWS V14.01,2013-07-18 15:59:00,
2013-07-18 12:04:00,83.3,77.2,30.11,ESE,105,5.0,8.0,82,0.00,,---,0.01,VWS V14.01,2013-07-18 16:04:00,
2013-07-18 12:09:00,83.5,77.1,30.11,ESE,103,9.0,10.0,81,0.00,,---,0.01,VWS V14.01,2013-07-18 16:09:00,
2013-07-18 12:14:00,83.5,76.7,30.11,East,99,8.0,11.0,80,0.00,,---,0.01,VWS V14.01,2013-07-18 16:14:00,
2013-07-18 12:19:00,83.6,76.4,30.11,ESE,105,7.0,9.0,79,0.00,,---,0.01,VWS V14.01,2013-07-18 16:19:00,
2013-07-18 12:24:00,83.6,76.8,30.11,ESE,107,7.0,9.0,80,0.00,,---,0.01,VWS V14.01,2013-07-18 16:24:00,
2013-07-18 12:29:00,83.6,76.4,30.11,ESE,111,8.0,8.0,79,0.00,,---,0.01,VWS V14.01,2013-07-18 16:29:00,
2013-07-18 12:34:00,83.6,76.8,30.11,ESE,107,5.0,5.0,80,0.00,,---,0.01,VWS V14.01,2013-07-18 16:34:00,
2013-07-18 12:39:00,83.8,76.2,30.11,ESE,102,7.0,7.0,78,0.00,,---,0.01,VWS V14.01,2013-07-18 16:39:00,
2013-07-18 12:44:00,83.6,76.8,30.11,ESE,106,8.0,9.0,80,0.00,,---,0.01,VWS V14.01,2013-07-18 16:44:00,
2013-07-18 12:49:00,83.5,76.3,30.11,ESE,104,8.0,8.0,79,0.00,,---,0.01,VWS V14.01,2013-07-18 16:49:00,
2013-07-18 12:54:00,83.9,77.4,30.11,ESE,105,8.0,8.0,81,0.00,,---,0.01,VWS V14.01,2013-07-18 16:54:00,
2013-07-18 12:59:00,84.5,77.3,30.11,ESE,110,7.0,7.0,79,0.00,,---,0.01,VWS V14.01,2013-07-18 16:59:00,
2013-07-18 13:04:00,84.6,77.0,30.11,ESE,105,7.0,7.0,78,0.00,,---,0.01,VWS V14.01,2013-07-18 17:04:00,
2013-07-18 13:09:00,84.5,76.1,30.11,ESE,116,9.0,11.0,76,0.00,,---,0.01,VWS V14.01,2013-07-18 17:09:00,
2013-07-18 13:14:00,84.4,76.0,30.11,ESE,117,10.0,10.0,76,0.00,,---,0.01,VWS V14.01,2013-07-18 17:14:00,
2013-07-18 13:19:00,84.2,76.6,30.11,ESE,117,8.0,10.0,78,0.00,,---,0.01,VWS V14.01,2013-07-18 17:19:00,
2013-07-18 13:24:00,84.4,76.4,30.11,ESE,117,12.0,12.0,77,0.00,,---,0.01,VWS V14.01,2013-07-18 17:24:00,
2013-07-18 13:29:00,84.4,76.8,30.11,ESE,115,9.0,9.0,78,0.00,,---,0.01,VWS V14.01,2013-07-18 17:29:00,
2013-07-18 13:34:00,84.2,76.6,30.10,ESE,108,9.0,9.0,78,0.00,,---,0.01,VWS V14.01,2013-07-18 17:34:00,
2013-07-18 13:39:00,84.1,76.1,30.10,ESE,103,7.0,9.0,77,0.00,,---,0.01,VWS V14.01,2013-07-18 17:39:00,
2013-07-18 13:44:00,84.0,76.8,30.10,ESE,106,7.0,9.0,79,0.00,,---,0.01,VWS V14.01,2013-07-18 17:44:00,
2013-07-18 13:49:00,84.0,75.6,30.10,East,100,7.0,10.0,76,0.00,,---,0.01,VWS V14.01,2013-07-18 17:49:00,
2013-07-18 13:55:00,84.1,76.1,30.09,ESE,107,7.0,10.0,77,0.00,,---,0.01,VWS V14.01,2013-07-18 17:55:00,
2013-07-18 14:00:00,84.3,76.3,30.09,ESE,104,5.0,8.0,77,0.00,,---,0.01,VWS V14.01,2013-07-18 18:00:00,
2013-07-18 14:05:00,84.3,76.7,30.09,ESE,104,8.0,9.0,78,0.00,,---,0.01,VWS V14.01,2013-07-18 18:05:00,
2013-07-18 14:10:00,84.3,76.3,30.09,ESE,106,9.0,9.0,77,0.00,,---,0.01,VWS V14.01,2013-07-18 18:10:00,
2013-07-18 14:15:00,84.2,76.6,30.09,ESE,107,7.0,10.0,78,0.00,,---,0.01,VWS V14.01,2013-07-18 18:15:00,
2013-07-18 14:20:00,84.3,75.5,30.09,ESE,110,7.0,8.0,75,0.00,,---,0.01,VWS V14.01,2013-07-18 18:20:00,
2013-07-18 14:25:00,84.5,76.5,30.09,ESE,113,9.0,9.0,77,0.00,,---,0.01,VWS V14.01,2013-07-18 18:25:00,
2013-07-18 14:30:00,84.5,76.1,30.08,ESE,115,10.0,11.0,76,0.00,,---,0.01,VWS V14.01,2013-07-18 18:30:00,
2013-07-18 14:35:00,84.6,75.8,30.08,ESE,107,10.0,10.0,75,0.00,,---,0.01,VWS V14.01,2013-07-18 18:35:00,
2013-07-18 14:40:00,84.5,75.7,30.08,ESE,114,7.0,8.0,75,0.00,,---,0.01,VWS V14.01,2013-07-18 18:40:00,
2013-07-18 14:45:00,84.7,76.3,30.08,ESE,113,8.0,11.0,76,0.00,,---,0.01,VWS V14.01,2013-07-18 18:45:00,
2013-07-18 14:50:00,84.5,75.7,30.08,ESE,109,7.0,8.0,75,0.00,,---,0.01,VWS V14.01,2013-07-18 18:50:00,
2013-07-18 14:55:00,83.9,75.5,30.08,East,101,7.0,11.0,76,0.00,,---,0.01,VWS V14.01,2013-07-18 18:55:00,
2013-07-18 15:00:00,84.1,76.1,30.07,ESE,105,11.0,11.0,77,0.00,,---,0.01,VWS V14.01,2013-07-18 19:00:00,
2013-07-18 15:05:00,84.1,76.5,30.08,ESE,108,5.0,11.0,78,0.00,,---,0.01,VWS V14.01,2013-07-18 19:05:00,
2013-07-18 15:10:00,83.4,75.1,30.07,ESE,103,12.0,12.0,76,0.00,,---,0.01,VWS V14.01,2013-07-18 19:10:00,
2013-07-18 15:15:00,83.4,75.4,30.07,ESE,111,10.0,13.0,77,0.00,,---,0.01,VWS V14.01,2013-07-18 19:15:00,
2013-07-18 15:20:00,83.3,75.3,30.07,ESE,111,8.0,9.0,77,0.00,,---,0.01,VWS V14.01,2013-07-18 19:20:00,
2013-07-18 15:25:00,83.7,75.3,30.07,ESE,107,9.0,10.0,76,0.00,,---,0.01,VWS V14.01,2013-07-18 19:25:00,
2013-07-18 15:30:00,84.2,75.8,30.07,ESE,115,8.0,12.0,76,0.00,,---,0.01,VWS V14.01,2013-07-18 19:30:00,
2013-07-18 15:35:00,84.2,76.2,30.06,ESE,115,10.0,11.0,77,0.00,,---,0.01,VWS V14.01,2013-07-18 19:35:00,
2013-07-18 15:40:00,84.2,74.6,30.06,ESE,111,9.0,9.0,73,0.00,,---,0.01,VWS V14.01,2013-07-18 19:40:00,
2013-07-18 15:45:00,84.2,76.2,30.05,ESE,113,11.0,11.0,77,0.00,,---,0.01,VWS V14.01,2013-07-18 19:45:00,
2013-07-18 15:50:00,84.0,74.4,30.05,ESE,113,8.0,13.0,73,0.00,,---,0.01,VWS V14.01,2013-07-18 19:50:00,
2013-07-18 15:55:00,84.1,75.7,30.05,ESE,106,8.0,10.0,76,0.00,,---,0.01,VWS V14.01,2013-07-18 19:55:00,
2013-07-18 16:00:00,84.1,75.3,30.04,ESE,107,9.0,9.0,75,0.00,,---,0.01,VWS V14.01,2013-07-18 20:00:00,
2013-07-18 16:05:00,84.1,75.7,30.04,ESE,114,9.0,12.0,76,0.00,,---,0.01,VWS V14.01,2013-07-18 20:05:00,
2013-07-18 16:10:00,84.1,75.3,30.04,ESE,109,8.0,10.0,75,0.00,,---,0.01,VWS V14.01,2013-07-18 20:10:00,
2013-07-18 16:15:00,83.9,75.9,30.04,ESE,105,11.0,11.0,77,0.00,,---,0.01,VWS V14.01,2013-07-18 20:15:00,
2013-07-18 16:20:00,83.9,75.5,30.04,ESE,114,9.0,9.0,76,0.00,,---,0.01,VWS V14.01,2013-07-18 20:20:00,
2013-07-18 16:25:00,83.8,74.6,30.04,ESE,103,9.0,9.0,74,0.00,,---,0.01,VWS V14.01,2013-07-18 20:25:00,
2013-07-18 16:30:00,83.9,75.9,30.03,ESE,112,7.0,7.0,77,0.00,,---,0.01,VWS V14.01,2013-07-18 20:30:00,
2013-07-18 16:35:00,84.0,75.6,30.03,ESE,116,10.0,10.0,76,0.00,,---,0.01,VWS V14.01,2013-07-18 20:35:00,
2013-07-18 16:40:00,84.1,75.7,30.03,ESE,117,9.0,10.0,76,0.00,,---,0.01,VWS V14.01,2013-07-18 20:40:00,
2013-07-18 16:45:00,83.8,73.8,30.03,ESE,117,9.0,9.0,72,0.00,,---,0.01,VWS V14.01,2013-07-18 20:45:00,
2013-07-18 16:50:00,83.4,74.7,30.03,ESE,120,9.0,9.0,75,0.00,,---,0.01,VWS V14.01,2013-07-18 20:50:00,
2013-07-18 16:55:00,83.2,74.5,30.03,ESE,116,7.0,9.0,75,0.00,,---,0.01,VWS V14.01,2013-07-18 20:55:00,
2013-07-18 17:00:00,83.1,74.8,30.03,ESE,114,8.0,10.0,76,0.00,,---,0.01,VWS V14.01,2013-07-18 21:00:00,
2013-07-18 17:05:00,82.9,74.6,30.03,ESE,113,9.0,11.0,76,0.00,,---,0.01,VWS V14.01,2013-07-18 21:05:00,
2013-07-18 17:10:00,83.2,74.8,30.03,ESE,115,9.0,10.0,76,0.00,,---,0.01,VWS V14.01,2013-07-18 21:10:00,
2013-07-18 17:15:00,83.3,74.2,30.03,ESE,116,10.0,10.0,74,0.00,,---,0.01,VWS V14.01,2013-07-18 21:15:00,
2013-07-18 17:20:00,83.4,74.2,30.03,ESE,117,8.0,9.0,74,0.00,,---,0.01,VWS V14.01,2013-07-18 21:20:00,
2013-07-18 17:25:00,83.3,73.3,30.03,ESE,118,8.0,8.0,72,0.00,,---,0.01,VWS V14.01,2013-07-18 21:25:00,
2013-07-18 17:30:00,83.3,73.8,30.04,ESE,118,8.0,8.0,73,0.00,,---,0.01,VWS V14.01,2013-07-18 21:30:00,
2013-07-18 17:35:00,83.4,74.7,30.03,ESE,118,8.0,9.0,75,0.00,,---,0.01,VWS V14.01,2013-07-18 21:35:00,
2013-07-18 17:40:00,83.4,73.4,30.03,ESE,118,8.0,8.0,72,0.00,,---,0.01,VWS V14.01,2013-07-18 21:40:00,
2013-07-18 17:45:00,83.6,73.6,30.03,ESE,118,8.0,8.0,72,0.00,,---,0.01,VWS V14.01,2013-07-18 21:45:00,
2013-07-18 17:50:00,83.5,73.9,30.03,ESE,118,7.0,8.0,73,0.00,,---,0.01,VWS V14.01,2013-07-18 21:50:00,
2013-07-18 17:55:00,83.4,72.6,30.03,ESE,118,7.0,7.0,70,0.00,,---,0.01,VWS V14.01,2013-07-18 21:55:00,
2013-07-18 18:00:00,83.4,73.4,30.03,ESE,118,7.0,8.0,72,0.00,,---,0.01,VWS V14.01,2013-07-18 22:00:00,
2013-07-18 18:05:00,83.3,73.3,30.03,ESE,118,7.0,8.0,72,0.00,,---,0.01,VWS V14.01,2013-07-18 22:05:00,
2013-07-18 18:10:00,83.5,73.9,30.02,ESE,118,5.0,7.0,73,0.00,,---,0.01,VWS V14.01,2013-07-18 22:10:00,
2013-07-18 18:15:00,83.6,73.2,30.02,ESE,118,4.0,5.0,71,0.00,,---,0.01,VWS V14.01,2013-07-18 22:15:00,
2013-07-18 18:20:00,83.6,71.9,30.02,ESE,118,4.0,4.0,68,0.00,,---,0.01,VWS V14.01,2013-07-18 22:20:00,
2013-07-18 18:25:00,83.6,72.4,30.02,ESE,118,5.0,7.0,69,0.00,,---,0.01,VWS V14.01,2013-07-18 22:25:00,
2013-07-18 18:30:00,83.5,73.9,30.02,ESE,118,5.0,7.0,73,0.00,,---,0.01,VWS V14.01,2013-07-18 22:30:00,
2013-07-18 18:35:00,83.4,71.3,30.02,ESE,118,5.0,7.0,67,0.00,,---,0.01,VWS V14.01,2013-07-18 22:35:00,
2013-07-18 18:40:00,83.4,72.2,30.02,ESE,118,4.0,5.0,69,0.00,,---,0.01,VWS V14.01,2013-07-18 22:40:00,
2013-07-18 18:45:00,83.5,71.8,30.02,ESE,118,4.0,4.0,68,0.00,,---,0.01,VWS V14.01,2013-07-18 22:45:00,
2013-07-18 18:50:00,83.5,73.1,30.02,ESE,118,4.0,7.0,71,0.00,,---,0.01,VWS V14.01,2013-07-18 22:50:00,
2013-07-18 18:56:00,83.4,73.4,30.02,ESE,118,5.0,7.0,72,0.00,,---,0.01,VWS V14.01,2013-07-18 22:56:00,
2013-07-18 19:01:00,83.4,73.4,30.02,ESE,118,2.0,5.0,72,0.00,,---,0.01,VWS V14.01,2013-07-18 23:01:00,
2013-07-18 19:06:00,83.2,72.8,30.02,ESE,118,5.0,5.0,71,0.00,,---,0.01,VWS V14.01,2013-07-18 23:06:00,
2013-07-18 19:11:00,83.2,73.2,30.02,ESE,118,4.0,4.0,72,0.00,,---,0.01,VWS V14.01,2013-07-18 23:11:00,
2013-07-18 19:16:00,83.1,72.7,30.02,ESE,118,4.0,7.0,71,0.00,,---,0.01,VWS V14.01,2013-07-18 23:16:00,
2013-07-18 19:21:00,83.1,72.7,30.03,ESE,118,4.0,5.0,71,0.00,,---,0.01,VWS V14.01,2013-07-18 23:21:00,
2013-07-18 19:26:00,83.1,72.7,30.03,ESE,118,5.0,5.0,71,0.00,,---,0.01,VWS V14.01,2013-07-18 23:26:00,
2013-07-18 19:31:00,83.0,73.5,30.03,ESE,118,4.0,5.0,73,0.00,,---,0.01,VWS V14.01,2013-07-18 23:31:00,
2013-07-18 19:36:00,82.8,73.3,30.03,ESE,118,4.0,5.0,73,0.00,,---,0.01,VWS V14.01,2013-07-18 23:36:00,
2013-07-18 19:41:00,82.7,74.0,30.03,ESE,118,4.0,5.0,75,0.00,,---,0.01,VWS V14.01,2013-07-18 23:41:00,
2013-07-18 19:46:00,82.7,73.2,30.03,ESE,118,2.0,3.0,73,0.00,,---,0.01,VWS V14.01,2013-07-18 23:46:00,
2013-07-18 19:51:00,82.6,73.5,30.03,ESE,118,2.0,5.0,74,0.00,,---,0.01,VWS V14.01,2013-07-18 23:51:00,
2013-07-18 19:56:00,82.6,73.1,30.03,ESE,118,3.0,4.0,73,0.00,,---,0.01,VWS V14.01,2013-07-18 23:56:00,
2013-07-18 20:01:00,82.7,73.2,30.03,ESE,118,5.0,7.0,73,0.00,,---,0.01,VWS V14.01,2013-07-19 00:01:00,
2013-07-18 20:06:00,82.7,72.3,30.03,ESE,118,1.0,4.0,71,0.00,,---,0.01,VWS V14.01,2013-07-19 00:06:00,
2013-07-18 20:11:00,82.7,73.2,30.03,ESE,118,3.0,4.0,73,0.00,,---,0.01,VWS V14.01,2013-07-19 00:11:00,
2013-07-18 20:16:00,82.6,73.1,30.03,ESE,118,2.0,3.0,73,0.00,,---,0.01,VWS V14.01,2013-07-19 00:16:00,
2013-07-18 20:21:00,82.5,72.6,30.02,ESE,118,4.0,5.0,72,0.00,,---,0.01,VWS V14.01,2013-07-19 00:21:00,
2013-07-18 20:26:00,82.5,72.6,30.02,ESE,118,3.0,4.0,72,0.00,,---,0.01,VWS V14.01,2013-07-19 00:26:00,
2013-07-18 20:31:00,82.5,73.4,30.03,ESE,118,3.0,4.0,74,0.00,,---,0.01,VWS V14.01,2013-07-19 00:31:00,
2013-07-18 20:36:00,82.4,73.3,30.03,ESE,118,1.0,3.0,74,0.00,,---,0.01,VWS V14.01,2013-07-19 00:36:00,
2013-07-18 20:41:00,82.3,74.0,30.03,ESE,118,1.0,3.0,76,0.00,,---,0.01,VWS V14.01,2013-07-19 00:41:00,
2013-07-18 20:46:00,82.2,73.5,30.03,ESE,118,0.0,4.0,75,0.00,,---,0.01,VWS V14.01,2013-07-19 00:46:00,
2013-07-18 20:51:00,82.2,73.5,30.03,ESE,118,3.0,5.0,75,0.00,,---,0.01,VWS V14.01,2013-07-19 00:51:00,
2013-07-18 20:56:00,82.1,73.0,30.03,ESE,118,2.0,3.0,74,0.00,,---,0.01,VWS V14.01,2013-07-19 00:56:00,
2013-07-18 21:01:00,82.2,74.3,30.02,ESE,118,2.0,3.0,77,0.00,,---,0.01,VWS V14.01,2013-07-19 01:01:00,
2013-07-18 21:06:00,82.1,73.8,30.03,ESE,118,0.0,2.0,76,0.00,,---,0.01,VWS V14.01,2013-07-19 01:06:00,
2013-07-18 21:11:00,82.0,73.3,30.02,ESE,118,3.0,3.0,75,0.00,,---,0.01,VWS V14.01,2013-07-19 01:11:00,
2013-07-18 21:16:00,82.0,73.3,30.03,ESE,118,0.0,3.0,75,0.00,,---,0.01,VWS V14.01,2013-07-19 01:16:00,
2013-07-18 21:21:00,82.0,72.9,30.03,ESE,118,2.0,3.0,74,0.00,,---,0.01,VWS V14.01,2013-07-19 01:21:00,
2013-07-18 21:26:00,82.0,73.3,30.03,ESE,118,1.0,1.0,75,0.00,,---,0.01,VWS V14.01,2013-07-19 01:26:00,
2013-07-18 21:31:00,82.0,73.7,30.03,ESE,118,2.0,2.0,76,0.00,,---,0.01,VWS V14.01,2013-07-19 01:31:00,
2013-07-18 21:36:00,82.0,73.7,30.03,ESE,118,2.0,3.0,76,0.00,,---,0.01,VWS V14.01,2013-07-19 01:36:00,
2013-07-18 21:41:00,82.0,73.7,30.04,ESE,118,3.0,3.0,76,0.00,,---,0.01,VWS V14.01,2013-07-19 01:41:00,
2013-07-18 21:46:00,82.0,74.1,30.04,ESE,118,4.0,4.0,77,0.00,,---,0.01,VWS V14.01,2013-07-19 01:46:00,
2013-07-18 21:51:00,82.0,74.1,30.04,ESE,118,3.0,5.0,77,0.00,,---,0.01,VWS V14.01,2013-07-19 01:51:00,
2013-07-18 21:56:00,82.0,74.1,30.04,ESE,118,4.0,4.0,77,0.00,,---,0.01,VWS V14.01,2013-07-19 01:56:00,
2013-07-18 22:01:00,82.0,74.1,30.04,ESE,118,5.0,5.0,77,0.00,,---,0.01,VWS V14.01,2013-07-19 02:01:00,
2013-07-18 22:06:00,82.1,74.2,30.04,ESE,118,2.0,3.0,77,0.00,,---,0.01,VWS V14.01,2013-07-19 02:06:00,
2013-07-18 22:11:00,82.0,73.7,30.05,ESE,118,1.0,2.0,76,0.00,,---,0.01,VWS V14.01,2013-07-19 02:11:00,
2013-07-18 22:16:00,82.1,74.6,30.05,ESE,118,2.0,2.0,78,0.00,,---,0.01,VWS V14.01,2013-07-19 02:16:00,
2013-07-18 22:21:00,82.0,74.5,30.05,ESE,118,1.0,3.0,78,0.00,,---,0.01,VWS V14.01,2013-07-19 02:21:00,
2013-07-18 22:26:00,82.0,74.5,30.05,ESE,118,1.0,3.0,78,0.00,,---,0.01,VWS V14.01,2013-07-19 02:26:00,
2013-07-18 22:31:00,81.8,74.3,30.05,ESE,118,2.0,2.0,78,0.00,,---,0.01,VWS V14.01,2013-07-19 02:31:00,
2013-07-18 22:36:00,81.8,74.7,30.05,ESE,118,1.0,2.0,79,0.00,,---,0.01,VWS V14.01,2013-07-19 02:36:00,
2013-07-18 22:41:00,81.9,74.4,30.05,ESE,118,4.0,4.0,78,0.00,,---,0.01,VWS V14.01,2013-07-19 02:41:00,
2013-07-18 22:46:00,81.9,74.8,30.05,ESE,118,3.0,4.0,79,0.00,,---,0.01,VWS V14.01,2013-07-19 02:46:00,
2013-07-18 22:51:00,81.9,74.8,30.05,ESE,118,4.0,5.0,79,0.00,,---,0.01,VWS V14.01,2013-07-19 02:51:00,
2013-07-18 22:56:00,82.0,75.2,30.06,ESE,118,0.0,3.0,80,0.00,,---,0.01,VWS V14.01,2013-07-19 02:56:00,
2013-07-18 23:01:00,82.0,74.5,30.05,ESE,118,2.0,2.0,78,0.00,,---,0.01,VWS V14.01,2013-07-19 03:01:00,
2013-07-18 23:06:00,82.0,74.8,30.05,ESE,118,1.0,4.0,79,0.00,,---,0.01,VWS V14.01,2013-07-19 03:06:00,
2013-07-18 23:11:00,82.0,74.8,30.05,ESE,118,2.0,2.0,79,0.00,,---,0.01,VWS V14.01,2013-07-19 03:11:00,
2013-07-18 23:16:00,82.0,74.8,30.05,ESE,118,2.0,3.0,79,0.00,,---,0.01,VWS V14.01,2013-07-19 03:16:00,
2013-07-18 23:21:00,82.0,75.2,30.05,ESE,118,2.0,5.0,80,0.00,,---,0.01,VWS V14.01,2013-07-19 03:21:00,
2013-07-18 23:26:00,82.1,75.3,30.05,ESE,118,1.0,3.0,80,0.00,,---,0.01,VWS V14.01,2013-07-19 03:26:00,
2013-07-18 23:31:00,82.1,75.3,30.06,ESE,118,2.0,3.0,80,0.00,,---,0.01,VWS V14.01,2013-07-19 03:31:00,
2013-07-18 23:36:00,82.1,75.3,30.06,ESE,118,3.0,3.0,80,0.00,,---,0.01,VWS V14.01,2013-07-19 03:36:00,
2013-07-18 23:41:00,82.1,74.9,30.06,ESE,118,3.0,3.0,79,0.00,,---,0.01,VWS V14.01,2013-07-19 03:41:00,
2013-07-18 23:46:00,82.1,75.3,30.06,ESE,118,7.0,7.0,80,0.00,,---,0.01,VWS V14.01,2013-07-19 03:46:00,
2013-07-18 23:51:00,82.2,75.4,30.06,ESE,118,2.0,7.0,80,0.00,,---,0.01,VWS V14.01,2013-07-19 03:51:00,
2013-07-18 23:56:00,82.2,75.4,30.06,ESE,118,3.0,5.0,80,0.00,,---,0.01,VWS V14.01,2013-07-19 03:56:00,